Location: Cheching
(60.0667°N, 164.2167°W)
Time: 07:01:22
(UTC+00:00)

XW-2D - Pass Details

Date: 18 January 2021
Orbit: 505 x 525 km, 97.5° (Epoch: 09 March)

Event Time Altitude Azimuth Distance (km) Brightness Sun altitude
Rises 17:55:05 0° 13° (NNE) 2,667 ? -11.9°
Reaches altitude 10° 17:57:14 10° 8° (N) 1,777 ? -11.6°
Maximum altitude 18:00:55 47° 294° (WNW) 709 ? -11.2°
Drops below altitude 10° 18:04:36 10° 221° (SW) 1,771 ? -10.7°
Sets 18:06:44 0° 215° (SW) 2,658 ? -10.5°
